GFSGBSN_prec_pwat_180.txt.gz
Precipitable_Water
1.63 1.51 1.36 1.15 0.86 0.75 0.76 0.77 0.74 0.69 0.68 0.70 0.72 0.73 0.75 0.78 0.78 0.78 0.78 0.78 0.77 0.76 0.74 0.72 0.71 0.66 0.50 0.30 0.26 0.42 0.45 0.46 0.45 0.38 0.31 0.30 0.28 0.26 0.22 0.25 0.27 0.22 0.23 0.27 0.30 0.32 0.34
1.55 1.65 1.57 1.38 1.16 0.89 0.76 0.76 0.80 0.78 0.72 0.71 0.72 0.73 0.74 0.76 0.77 0.77 0.78 0.77 0.78 0.78 0.76 0.75 0.73 0.69 0.47 0.25 0.39 0.45 0.44 0.43 0.42 0.39 0.36 0.37 0.34 0.34 0.28 0.28 0.27 0.30 0.28 0.27 0.29 0.31 0.35
1.48 1.52 1.62 1.56 1.41 1.21 0.92 0.80 0.76 0.80 0.80 0.76 0.76 0.75 0.75 0.76 0.77 0.78 0.79 0.81 0.80 0.79 0.80 0.78 0.74 0.66 0.45 0.29 0.45 0.48 0.46 0.42 0.45 0.44 0.36 0.40 0.40 0.35 0.37 0.30 0.38 0.34 0.28 0.29 0.30 0.31 0.31
1.42 1.50 1.51 1.62 1.58 1.50 1.30 0.97 0.85 0.78 0.78 0.81 0.82 0.82 0.80 0.78 0.78 0.80 0.82 0.84 0.84 0.82 0.80 0.81 0.76 0.63 0.35 0.49 0.54 0.47 0.48 0.47 0.50 0.52 0.51 0.49 0.45 0.42 0.41 0.45 0.38 0.34 0.31 0.26 0.31 0.33 0.35
1.35 1.44 1.49 1.56 1.64 1.61 1.52 1.33 1.08 0.96 0.85 0.78 0.79 0.84 0.83 0.83 0.83 0.85 0.89 0.88 0.85 0.82 0.81 0.80 0.65 0.54 0.32 0.58 0.47 0.53 0.58 0.53 0.65 0.68 0.64 0.64 0.54 0.43 0.50 0.40 0.34 0.36 0.27 0.29 0.31 0.40 0.40
1.30 1.39 1.45 1.50 1.56 1.59 1.59 1.48 1.34 1.12 1.04 0.94 0.85 0.79 0.81 0.82 0.88 0.91 0.93 0.89 0.85 0.81 0.77 0.75 0.69 0.42 0.40 0.34 0.62 0.63 0.72 0.68 0.66 0.70 0.65 0.61 0.54 0.44 0.43 0.42 0.29 0.33 0.31 0.34 0.34 0.40 0.43
1.22 1.33 1.40 1.46 1.53 1.60 1.62 1.56 1.50 1.37 1.22 1.14 1.04 0.98 0.92 0.87 0.91 0.95 0.90 0.79 0.63 0.59 0.66 0.44 0.44 0.44 0.55 0.69 0.73 0.67 0.76 0.72 0.69 0.65 0.50 0.58 0.44 0.36 0.40 0.44 0.45 0.43 0.36 0.34 0.38 0.43 0.40
1.14 1.27 1.34 1.40 1.48 1.52 1.58 1.60 1.58 1.50 1.45 1.39 1.30 1.21 1.12 1.06 1.04 1.02 0.93 0.66 0.63 0.76 0.53 0.67 0.61 0.62 0.64 0.68 0.58 0.73 0.88 0.69 0.68 0.54 0.61 0.55 0.42 0.51 0.51 0.46 0.44 0.42 0.41 0.39 0.43 0.47 0.45
1.01 1.20 1.30 1.36 1.43 1.53 1.54 1.54 1.59 1.57 1.55 1.47 1.44 1.41 1.36 1.30 1.24 1.13 0.95 0.82 1.00 0.89 0.59 0.66 0.77 0.73 0.76 0.81 0.66 0.67 0.76 0.71 0.63 0.59 0.60 0.53 0.53 0.59 0.55 0.46 0.42 0.44 0.43 0.44 0.42 0.47 0.49
0.84 1.08 1.25 1.30 1.41 1.47 1.52 1.55 1.59 1.52 1.60 1.54 1.50 1.47 1.44 1.39 1.20 1.15 0.98 1.10 1.14 1.11 0.62 0.60 0.70 0.80 0.87 0.91 0.73 0.93 0.93 0.79 0.69 0.59 0.64 0.60 0.67 0.62 0.57 0.49 0.49 0.41 0.52 0.51 0.48 0.44 0.35
0.67 0.93 1.17 1.28 1.38 1.41 1.46 1.48 1.52 1.50 1.51 1.55 1.49 1.48 1.46 1.39 1.20 1.04 1.11 1.22 1.24 1.06 0.41 0.67 0.74 0.99 0.91 0.78 0.77 0.79 0.97 0.86 0.67 0.66 0.64 0.54 0.56 0.57 0.51 0.49 0.55 0.44 0.54 0.49 0.46 0.41 0.37
0.60 0.82 1.06 1.25 1.34 1.39 1.43 1.44 1.47 1.44 1.45 1.50 1.50 1.45 1.45 1.34 1.25 1.22 1.31 1.34 1.17 0.61 0.40 0.61 0.71 0.68 0.69 0.73 0.72 0.79 0.77 0.84 0.80 0.67 0.65 0.59 0.66 0.58 0.53 0.58 0.56 0.55 0.49 0.47 0.45 0.41 0.27
0.75 0.73 1.00 1.20 1.25 1.29 1.38 1.41 1.43 1.44 1.43 1.44 1.48 1.45 1.38 1.36 1.08 1.37 1.35 1.10 0.59 0.44 0.60 0.54 0.56 0.64 0.63 0.61 0.64 0.66 0.62 0.58 0.52 0.45 0.43 0.51 0.51 0.59 0.59 0.48 0.53 0.50 0.43 0.33 0.29 0.28 0.22
0.82 0.78 0.85 1.08 1.20 1.26 1.31 1.35 1.40 1.41 1.43 1.44 1.46 1.42 1.35 1.34 1.38 1.36 1.17 0.76 0.44 0.51 0.52 0.60 0.60 0.62 0.54 0.60 0.59 0.60 0.57 0.51 0.60 0.54 0.45 0.38 0.34 0.48 0.56 0.48 0.43 0.43 0.43 0.34 0.23 0.24 0.27
0.89 0.88 0.92 1.01 1.08 1.20 1.25 1.27 1.33 1.34 1.36 1.39 1.40 1.27 1.21 1.27 1.34 1.27 0.89 0.53 0.50 0.54 0.59 0.55 0.59 0.52 0.53 0.58 0.58 0.58 0.55 0.52 0.56 0.57 0.42 0.39 0.38 0.52 0.53 0.54 0.51 0.45 0.39 0.48 0.40 0.40 0.33
0.97 0.95 0.97 0.94 1.04 1.12 1.18 1.22 1.25 1.30 1.33 1.32 1.14 1.05 1.02 1.23 1.31 1.08 0.72 0.54 0.59 0.67 0.64 0.62 0.48 0.53 0.46 0.50 0.50 0.53 0.53 0.55 0.55 0.59 0.61 0.49 0.35 0.48 0.53 0.58 0.58 0.50 0.54 0.41 0.44 0.29 0.26
0.84 0.94 0.95 0.95 0.97 1.03 1.10 1.14 1.17 1.22 1.25 1.25 1.04 0.83 1.01 1.18 1.17 0.84 0.56 0.57 0.63 0.72 0.68 0.60 0.55 0.52 0.52 0.51 0.52 0.51 0.48 0.54 0.58 0.56 0.60 0.53 0.43 0.39 0.45 0.42 0.41 0.45 0.42 0.47 0.47 0.40 0.29
0.84 0.85 0.88 0.89 0.92 0.95 1.01 1.05 1.09 1.09 1.14 1.10 0.91 0.66 0.97 1.07 0.69 0.68 0.58 0.63 0.71 0.67 0.73 0.66 0.65 0.60 0.53 0.54 0.49 0.47 0.44 0.48 0.56 0.57 0.49 0.54 0.46 0.33 0.34 0.45 0.50 0.44 0.42 0.46 0.36 0.30 0.38
0.83 0.83 0.85 0.85 0.88 0.94 0.95 0.98 0.99 1.00 1.04 0.95 0.74 0.72 0.92 0.92 0.53 0.55 0.62 0.63 0.68 0.65 0.65 0.64 0.61 0.62 0.60 0.53 0.48 0.51 0.51 0.59 0.59 0.54 0.51 0.54 0.44 0.32 0.32 0.40 0.49 0.40 0.38 0.38 0.41 0.42 0.32
0.77 0.76 0.77 0.79 0.82 0.85 0.89 0.92 0.92 0.94 0.96 0.86 0.68 0.54 0.66 0.72 0.68 0.58 0.55 0.54 0.55 0.67 0.63 0.66 0.62 0.65 0.57 0.50 0.52 0.45 0.49 0.57 0.58 0.56 0.58 0.56 0.44 0.37 0.27 0.29 0.39 0.37 0.39 0.41 0.39 0.34 0.33
0.68 0.70 0.70 0.69 0.75 0.76 0.80 0.84 0.86 0.87 0.89 0.83 0.64 0.53 0.59 0.48 0.54 0.57 0.57 0.54 0.50 0.50 0.60 0.65 0.57 0.56 0.50 0.44 0.49 0.50 0.52 0.56 0.59 0.60 0.57 0.53 0.39 0.41 0.38 0.36 0.37 0.37 0.37 0.34 0.34 0.35 0.32
0.42 0.50 0.56 0.58 0.58 0.63 0.69 0.73 0.81 0.82 0.85 0.72 0.57 0.53 0.56 0.49 0.53 0.50 0.51 0.48 0.47 0.52 0.53 0.49 0.49 0.52 0.52 0.47 0.49 0.45 0.50 0.52 0.50 0.54 0.53 0.55 0.41 0.43 0.36 0.37 0.38 0.37 0.37 0.33 0.37 0.36 0.37
0.39 0.35 0.33 0.36 0.42 0.48 0.53 0.60 0.68 0.74 0.77 0.63 0.66 0.68 0.58 0.50 0.48 0.45 0.46 0.48 0.48 0.50 0.50 0.55 0.53 0.50 0.45 0.50 0.56 0.54 0.55 0.56 0.54 0.48 0.46 0.46 0.41 0.37 0.30 0.38 0.38 0.32 0.32 0.34 0.36 0.41 0.39
0.34 0.39 0.39 0.36 0.31 0.29 0.32 0.41 0.51 0.62 0.69 0.69 0.64 0.60 0.49 0.39 0.45 0.45 0.48 0.49 0.47 0.48 0.44 0.50 0.53 0.47 0.51 0.61 0.57 0.54 0.51 0.50 0.50 0.49 0.51 0.42 0.40 0.37 0.28 0.31 0.22 0.30 0.36 0.37 0.34 0.35 0.39
0.36 0.38 0.34 0.38 0.40 0.36 0.30 0.27 0.32 0.47 0.55 0.59 0.64 0.57 0.49 0.38 0.43 0.42 0.43 0.44 0.46 0.46 0.44 0.45 0.49 0.52 0.55 0.48 0.37 0.33 0.33 0.34 0.35 0.39 0.39 0.41 0.37 0.29 0.25 0.24 0.28 0.29 0.34 0.35 0.33 0.31 0.43
0.28 0.27 0.30 0.37 0.36 0.38 0.38 0.33 0.27 0.30 0.40 0.47 0.52 0.55 0.48 0.39 0.38 0.45 0.42 0.43 0.38 0.38 0.39 0.43 0.49 0.52 0.47 0.37 0.31 0.24 0.22 0.25 0.24 0.28 0.36 0.35 0.37 0.30 0.27 0.21 0.18 0.29 0.40 0.44 0.44 0.29 0.43
0.31 0.31 0.31 0.28 0.34 0.34 0.36 0.38 0.34 0.29 0.34 0.38 0.38 0.48 0.42 0.35 0.39 0.41 0.38 0.38 0.42 0.39 0.36 0.40 0.41 0.40 0.42 0.30 0.24 0.21 0.19 0.23 0.17 0.18 0.22 0.24 0.25 0.21 0.22 0.21 0.23 0.34 0.34 0.39 0.24 0.27 0.41
0.33 0.31 0.32 0.35 0.33 0.36 0.35 0.37 0.36 0.33 0.29 0.35 0.33 0.40 0.36 0.30 0.33 0.36 0.37 0.36 0.37 0.35 0.30 0.36 0.35 0.36 0.31 0.24 0.22 0.20 0.18 0.19 0.17 0.17 0.17 0.16 0.16 0.18 0.22 0.18 0.16 0.36 0.30 0.23 0.29 0.32 0.35
0.38 0.35 0.33 0.35 0.38 0.36 0.39 0.37 0.38 0.37 0.30 0.31 0.32 0.39 0.40 0.33 0.30 0.39 0.39 0.40 0.37 0.34 0.29 0.32 0.28 0.27 0.29 0.23 0.22 0.21 0.16 0.17 0.14 0.11 0.17 0.11 0.13 0.12 0.14 0.15 0.23 0.24 0.23 0.29 0.26 0.24 0.23

GFSGBSN_prec_pwat_186.txt.gz
Precipitable_Water
1.25 1.34 1.38 1.23 1.21 1.28 1.00 0.82 0.74 0.71 0.67 0.72 0.75 0.75 0.83 0.80 0.81 0.80 0.79 0.77 0.76 0.75 0.72 0.69 0.66 0.64 0.52 0.36 0.32 0.49 0.46 0.41 0.38 0.34 0.29 0.26 0.24 0.25 0.22 0.23 0.23 0.21 0.23 0.25 0.27 0.28 0.25
1.13 1.26 1.34 1.35 1.22 1.24 1.26 0.92 0.78 0.73 0.71 0.68 0.75 0.74 0.76 0.80 0.79 0.78 0.78 0.77 0.76 0.73 0.70 0.68 0.67 0.64 0.48 0.28 0.45 0.46 0.44 0.37 0.35 0.32 0.31 0.32 0.31 0.34 0.30 0.28 0.26 0.27 0.28 0.28 0.29 0.26 0.26
1.11 1.18 1.27 1.34 1.31 1.25 1.26 1.19 0.85 0.76 0.75 0.69 0.69 0.72 0.73 0.77 0.79 0.78 0.77 0.78 0.76 0.75 0.70 0.69 0.68 0.63 0.45 0.33 0.45 0.43 0.48 0.41 0.38 0.38 0.32 0.40 0.41 0.34 0.33 0.28 0.33 0.31 0.26 0.26 0.26 0.28 0.28
0.99 1.08 1.20 1.29 1.35 1.33 1.29 1.27 1.04 0.81 0.77 0.75 0.68 0.71 0.71 0.74 0.77 0.79 0.80 0.78 0.78 0.77 0.74 0.72 0.72 0.60 0.35 0.47 0.47 0.45 0.43 0.40 0.46 0.40 0.37 0.44 0.47 0.40 0.34 0.34 0.29 0.27 0.30 0.24 0.28 0.33 0.36
0.80 1.03 1.10 1.20 1.28 1.36 1.36 1.32 1.25 0.92 0.81 0.80 0.76 0.69 0.70 0.74 0.76 0.79 0.80 0.80 0.79 0.78 0.77 0.76 0.63 0.58 0.33 0.51 0.39 0.43 0.42 0.35 0.39 0.41 0.42 0.41 0.40 0.35 0.39 0.32 0.28 0.32 0.24 0.27 0.30 0.39 0.43
0.68 0.82 1.07 1.12 1.22 1.31 1.41 1.40 1.35 1.16 0.86 0.80 0.83 0.78 0.71 0.72 0.78 0.82 0.83 0.83 0.83 0.80 0.77 0.78 0.69 0.45 0.40 0.30 0.42 0.51 0.59 0.46 0.36 0.43 0.43 0.43 0.38 0.34 0.36 0.31 0.20 0.23 0.28 0.35 0.35 0.38 0.39
0.61 0.76 0.89 1.02 1.16 1.26 1.34 1.43 1.50 1.42 1.07 0.83 0.79 0.85 0.81 0.76 0.81 0.86 0.83 0.76 0.59 0.54 0.61 0.41 0.41 0.34 0.33 0.43 0.53 0.45 0.55 0.50 0.48 0.49 0.34 0.40 0.31 0.27 0.32 0.37 0.38 0.38 0.35 0.31 0.35 0.42 0.40
0.61 0.70 0.79 0.89 1.11 1.23 1.31 1.37 1.47 1.50 1.39 1.08 0.87 0.86 0.87 0.83 0.88 0.89 0.82 0.58 0.57 0.63 0.47 0.59 0.46 0.45 0.41 0.58 0.44 0.48 0.58 0.45 0.45 0.37 0.43 0.43 0.34 0.39 0.46 0.47 0.45 0.46 0.43 0.40 0.44 0.49 0.46
0.61 0.62 0.74 0.80 0.90 1.14 1.28 1.33 1.41 1.49 1.48 1.32 1.06 0.98 0.92 0.92 0.91 0.88 0.73 0.64 0.75 0.82 0.50 0.41 0.48 0.44 0.43 0.44 0.41 0.43 0.56 0.52 0.46 0.41 0.43 0.39 0.40 0.58 0.57 0.53 0.49 0.47 0.45 0.44 0.44 0.50 0.50
0.63 0.59 0.72 0.74 0.81 0.97 1.19 1.30 1.39 1.46 1.50 1.51 1.35 1.10 1.03 0.95 0.82 0.83 0.72 0.84 0.89 0.89 0.32 0.30 0.37 0.44 0.51 0.53 0.46 0.55 0.57 0.60 0.57 0.47 0.51 0.49 0.55 0.54 0.53 0.53 0.57 0.44 0.58 0.53 0.50 0.46 0.37
0.64 0.60 0.67 0.71 0.74 0.82 1.08 1.26 1.35 1.38 1.46 1.48 1.49 1.41 1.16 1.02 0.85 0.71 0.77 0.95 0.97 0.72 0.25 0.45 0.47 0.68 0.64 0.52 0.60 0.61 0.68 0.57 0.49 0.50 0.56 0.41 0.52 0.54 0.49 0.50 0.58 0.48 0.62 0.57 0.56 0.49 0.46
0.65 0.61 0.61 0.68 0.71 0.73 0.90 1.23 1.33 1.35 1.43 1.47 1.49 1.49 1.41 1.22 1.08 1.04 1.07 1.11 0.92 0.49 0.31 0.48 0.63 0.59 0.63 0.58 0.58 0.70 0.67 0.65 0.59 0.56 0.59 0.51 0.64 0.59 0.57 0.65 0.66 0.65 0.59 0.58 0.57 0.49 0.35
0.65 0.63 0.59 0.62 0.66 0.65 0.80 1.13 1.29 1.33 1.38 1.43 1.47 1.49 1.41 1.36 1.04 1.26 1.18 1.00 0.55 0.42 0.54 0.48 0.59 0.68 0.67 0.61 0.61 0.67 0.64 0.61 0.51 0.46 0.48 0.59 0.60 0.66 0.70 0.61 0.64 0.61 0.54 0.41 0.36 0.35 0.29
0.66 0.65 0.59 0.58 0.61 0.64 0.68 0.97 1.21 1.32 1.37 1.41 1.43 1.46 1.42 1.38 1.39 1.31 1.11 0.73 0.42 0.47 0.50 0.61 0.65 0.68 0.60 0.69 0.65 0.66 0.63 0.57 0.66 0.63 0.55 0.51 0.44 0.59 0.65 0.62 0.56 0.54 0.51 0.39 0.29 0.29 0.31
0.62 0.61 0.60 0.60 0.60 0.62 0.63 0.83 1.11 1.31 1.36 1.37 1.40 1.32 1.30 1.36 1.40 1.29 0.89 0.51 0.48 0.55 0.64 0.59 0.70 0.62 0.60 0.66 0.63 0.64 0.60 0.56 0.63 0.68 0.54 0.52 0.49 0.61 0.64 0.68 0.64 0.53 0.43 0.52 0.40 0.41 0.33
0.63 0.63 0.62 0.65 0.62 0.62 0.65 0.80 0.98 1.27 1.34 1.34 1.21 1.13 1.13 1.37 1.38 1.12 0.76 0.55 0.60 0.69 0.73 0.67 0.56 0.66 0.54 0.58 0.59 0.60 0.57 0.62 0.60 0.70 0.72 0.62 0.50 0.60 0.58 0.65 0.60 0.54 0.60 0.44 0.43 0.29 0.27
0.70 0.69 0.70 0.70 0.65 0.63 0.66 0.79 0.92 1.16 1.31 1.30 1.13 0.89 1.10 1.32 1.27 0.90 0.60 0.60 0.65 0.75 0.76 0.66 0.63 0.63 0.63 0.60 0.62 0.58 0.56 0.60 0.65 0.67 0.68 0.65 0.56 0.56 0.58 0.51 0.48 0.48 0.46 0.51 0.51 0.45 0.35
0.83 0.83 0.81 0.78 0.80 0.83 0.79 0.77 0.83 0.98 1.18 1.22 0.99 0.72 1.08 1.20 0.77 0.76 0.64 0.68 0.73 0.71 0.78 0.73 0.73 0.70 0.65 0.65 0.62 0.59 0.56 0.60 0.68 0.70 0.60 0.64 0.56 0.46 0.51 0.59 0.59 0.54 0.51 0.50 0.41 0.34 0.38
0.78 0.79 0.82 0.80 0.81 0.89 0.96 0.94 0.94 0.98 1.06 1.05 0.81 0.78 1.02 1.04 0.60 0.60 0.68 0.67 0.72 0.69 0.70 0.71 0.67 0.70 0.73 0.66 0.59 0.67 0.69 0.78 0.74 0.68 0.65 0.65 0.55 0.43 0.45 0.51 0.55 0.49 0.49 0.48 0.49 0.49 0.39
0.76 0.77 0.78 0.78 0.84 0.91 0.88 1.04 1.08 1.10 1.12 1.00 0.80 0.61 0.75 0.80 0.74 0.65 0.60 0.63 0.64 0.77 0.73 0.74 0.70 0.73 0.68 0.63 0.69 0.62 0.65 0.73 0.75 0.70 0.71 0.69 0.56 0.47 0.38 0.41 0.46 0.44 0.47 0.45 0.42 0.36 0.36
0.63 0.69 0.75 0.76 0.76 0.75 0.84 0.90 1.00 1.07 1.11 0.98 0.77 0.64 0.71 0.56 0.61 0.64 0.65 0.63 0.60 0.61 0.73 0.75 0.68 0.67 0.63 0.56 0.60 0.59 0.65 0.68 0.73 0.74 0.68 0.62 0.47 0.48 0.46 0.45 0.45 0.43 0.43 0.40 0.41 0.43 0.38
0.48 0.48 0.54 0.66 0.73 0.77 0.79 0.78 0.88 0.95 1.02 0.81 0.60 0.63 0.72 0.66 0.67 0.62 0.61 0.57 0.57 0.61 0.64 0.61 0.61 0.66 0.66 0.58 0.58 0.55 0.61 0.62 0.59 0.68 0.62 0.62 0.46 0.48 0.42 0.45 0.46 0.43 0.44 0.42 0.42 0.41 0.42
0.42 0.48 0.44 0.41 0.51 0.63 0.70 0.75 0.79 0.82 0.90 0.72 0.72 0.73 0.64 0.58 0.58 0.57 0.56 0.57 0.58 0.63 0.64 0.67 0.66 0.63 0.60 0.63 0.69 0.70 0.70 0.70 0.68 0.62 0.59 0.57 0.50 0.45 0.35 0.45 0.44 0.38 0.36 0.42 0.42 0.42 0.41
0.40 0.40 0.44 0.46 0.40 0.39 0.52 0.64 0.73 0.78 0.81 0.79 0.78 0.73 0.58 0.44 0.53 0.54 0.58 0.60 0.58 0.60 0.56 0.62 0.66 0.60 0.66 0.77 0.74 0.70 0.67 0.65 0.64 0.62 0.64 0.50 0.47 0.45 0.35 0.39 0.27 0.33 0.40 0.43 0.41 0.42 0.44
0.28 0.35 0.38 0.43 0.43 0.40 0.36 0.43 0.55 0.67 0.75 0.73 0.75 0.67 0.60 0.49 0.53 0.55 0.56 0.56 0.59 0.61 0.56 0.58 0.63 0.68 0.73 0.65 0.52 0.45 0.44 0.45 0.48 0.54 0.53 0.55 0.46 0.36 0.32 0.30 0.34 0.34 0.38 0.37 0.37 0.40 0.48
0.29 0.26 0.31 0.32 0.38 0.41 0.41 0.35 0.41 0.50 0.60 0.68 0.69 0.74 0.61 0.50 0.48 0.58 0.53 0.56 0.50 0.50 0.51 0.54 0.64 0.69 0.64 0.52 0.45 0.34 0.31 0.34 0.34 0.38 0.51 0.51 0.50 0.38 0.34 0.26 0.23 0.32 0.41 0.44 0.44 0.31 0.45
0.32 0.31 0.27 0.28 0.32 0.34 0.36 0.39 0.33 0.43 0.51 0.53 0.56 0.69 0.60 0.48 0.54 0.55 0.48 0.48 0.57 0.53 0.47 0.52 0.54 0.53 0.60 0.44 0.36 0.33 0.33 0.40 0.32 0.31 0.32 0.36 0.36 0.31 0.31 0.28 0.32 0.36 0.41 0.40 0.25 0.28 0.41
0.37 0.35 0.33 0.30 0.30 0.31 0.32 0.32 0.33 0.29 0.40 0.47 0.46 0.59 0.54 0.46 0.50 0.55 0.58 0.52 0.54 0.53 0.43 0.50 0.48 0.49 0.46 0.38 0.37 0.35 0.33 0.35 0.33 0.36 0.31 0.29 0.27 0.26 0.27 0.25 0.22 0.39 0.38 0.29 0.33 0.34 0.31
0.40 0.38 0.36 0.35 0.33 0.31 0.33 0.33 0.31 0.30 0.25 0.35 0.38 0.36 0.49 0.45 0.46 0.55 0.60 0.63 0.62 0.62 0.53 0.50 0.46 0.43 0.45 0.39 0.37 0.38 0.32 0.33 0.30 0.24 0.33 0.29 0.32 0.27 0.30 0.29 0.39 0.38 0.33 0.32 0.28 0.25 0.23

GFSGBSN_prec_pwat_189.txt.gz
Precipitable_Water
0.89 1.02 1.17 1.23 1.27 1.21 1.17 1.10 0.96 0.80 0.68 0.65 0.70 0.77 0.82 0.86 0.84 0.85 0.84 0.82 0.81 0.78 0.75 0.71 0.67 0.64 0.51 0.37 0.30 0.46 0.46 0.41 0.36 0.31 0.25 0.26 0.26 0.23 0.20 0.22 0.23 0.21 0.22 0.24 0.24 0.24 0.25
0.79 0.92 1.08 1.18 1.22 1.29 1.21 1.16 1.05 0.92 0.76 0.69 0.69 0.72 0.79 0.84 0.85 0.84 0.85 0.82 0.80 0.79 0.75 0.70 0.67 0.65 0.49 0.25 0.46 0.45 0.42 0.39 0.33 0.30 0.28 0.29 0.27 0.31 0.28 0.26 0.27 0.27 0.25 0.24 0.24 0.24 0.26
0.77 0.84 0.94 1.10 1.19 1.26 1.26 1.22 1.15 1.01 0.88 0.74 0.70 0.71 0.78 0.82 0.83 0.85 0.84 0.83 0.79 0.77 0.75 0.71 0.68 0.61 0.44 0.29 0.46 0.45 0.44 0.38 0.35 0.34 0.30 0.38 0.41 0.33 0.32 0.25 0.32 0.30 0.24 0.23 0.22 0.24 0.23
0.67 0.78 0.85 1.05 1.15 1.19 1.27 1.27 1.22 1.11 0.98 0.82 0.75 0.70 0.72 0.81 0.83 0.84 0.84 0.82 0.81 0.78 0.74 0.71 0.70 0.57 0.31 0.46 0.50 0.43 0.42 0.36 0.40 0.40 0.36 0.43 0.44 0.37 0.33 0.32 0.30 0.31 0.34 0.23 0.20 0.24 0.29
0.60 0.71 0.79 0.93 1.05 1.17 1.27 1.28 1.27 1.21 1.05 0.93 0.79 0.75 0.70 0.76 0.80 0.83 0.86 0.84 0.82 0.81 0.78 0.73 0.59 0.55 0.29 0.52 0.38 0.39 0.40 0.32 0.36 0.36 0.39 0.37 0.36 0.32 0.31 0.22 0.23 0.26 0.22 0.23 0.24 0.36 0.39
0.59 0.64 0.75 0.79 0.98 1.12 1.19 1.28 1.29 1.26 1.17 1.03 0.86 0.79 0.72 0.72 0.78 0.83 0.85 0.86 0.84 0.80 0.75 0.75 0.64 0.43 0.39 0.29 0.37 0.40 0.45 0.41 0.33 0.32 0.32 0.32 0.33 0.28 0.26 0.23 0.17 0.18 0.22 0.27 0.31 0.36 0.39
0.64 0.60 0.70 0.73 0.91 1.03 1.15 1.22 1.28 1.24 1.29 1.12 0.95 0.82 0.79 0.72 0.77 0.84 0.82 0.74 0.56 0.50 0.60 0.38 0.40 0.34 0.32 0.42 0.48 0.42 0.49 0.47 0.39 0.31 0.24 0.33 0.28 0.25 0.21 0.25 0.25 0.25 0.26 0.26 0.33 0.40 0.41
0.69 0.62 0.64 0.74 0.75 0.91 1.13 1.18 1.25 1.31 1.28 1.28 1.04 0.86 0.86 0.79 0.79 0.82 0.76 0.53 0.50 0.58 0.43 0.58 0.49 0.47 0.42 0.49 0.36 0.43 0.50 0.36 0.34 0.25 0.33 0.33 0.27 0.30 0.30 0.28 0.29 0.32 0.32 0.32 0.41 0.49 0.45
0.73 0.65 0.62 0.71 0.70 0.84 1.07 1.13 1.22 1.30 1.34 1.32 1.16 0.91 0.90 0.91 0.84 0.79 0.64 0.55 0.72 0.76 0.47 0.46 0.51 0.47 0.43 0.41 0.37 0.41 0.47 0.41 0.35 0.32 0.35 0.28 0.30 0.40 0.39 0.35 0.35 0.37 0.37 0.41 0.43 0.50 0.51
0.74 0.65 0.62 0.65 0.69 0.78 0.89 1.10 1.18 1.26 1.31 1.33 1.30 1.00 0.90 0.97 0.81 0.76 0.63 0.71 0.84 0.83 0.33 0.30 0.35 0.44 0.45 0.46 0.31 0.43 0.53 0.42 0.38 0.32 0.39 0.39 0.44 0.44 0.46 0.42 0.48 0.42 0.55 0.52 0.49 0.46 0.37
0.76 0.63 0.62 0.64 0.67 0.75 0.81 0.88 1.21 1.25 1.30 1.37 1.39 1.22 0.93 0.89 0.79 0.66 0.72 0.77 0.85 0.73 0.19 0.28 0.30 0.50 0.44 0.37 0.31 0.31 0.44 0.46 0.34 0.39 0.41 0.35 0.44 0.47 0.43 0.45 0.53 0.45 0.56 0.54 0.52 0.47 0.45
0.65 0.61 0.62 0.64 0.62 0.69 0.78 0.81 0.99 1.22 1.29 1.36 1.41 1.42 1.13 0.95 0.87 0.82 0.86 0.90 0.80 0.38 0.18 0.27 0.49 0.42 0.42 0.42 0.37 0.55 0.45 0.50 0.52 0.50 0.52 0.47 0.55 0.52 0.49 0.54 0.57 0.58 0.53 0.54 0.52 0.49 0.35
0.65 0.63 0.63 0.64 0.62 0.63 0.73 0.78 0.82 1.18 1.26 1.32 1.37 1.40 1.32 1.14 0.83 0.99 0.95 0.79 0.44 0.31 0.34 0.31 0.44 0.48 0.44 0.42 0.42 0.54 0.46 0.42 0.37 0.35 0.34 0.40 0.40 0.50 0.57 0.50 0.56 0.57 0.51 0.41 0.38 0.37 0.31
0.67 0.66 0.64 0.64 0.62 0.62 0.66 0.73 0.78 1.04 1.24 1.31 1.35 1.34 1.37 1.32 1.26 1.12 0.97 0.60 0.37 0.35 0.34 0.49 0.50 0.51 0.45 0.52 0.48 0.51 0.56 0.47 0.51 0.47 0.44 0.37 0.34 0.48 0.52 0.50 0.48 0.53 0.54 0.43 0.32 0.31 0.33
0.64 0.66 0.63 0.65 0.64 0.62 0.64 0.67 0.71 0.88 1.15 1.30 1.35 1.26 1.22 1.31 1.34 1.19 0.82 0.49 0.38 0.40 0.44 0.38 0.53 0.53 0.54 0.63 0.62 0.61 0.58 0.57 0.59 0.60 0.48 0.47 0.44 0.62 0.61 0.63 0.62 0.53 0.49 0.59 0.47 0.45 0.37
0.66 0.65 0.66 0.66 0.67 0.63 0.62 0.64 0.64 0.77 1.09 1.27 1.16 1.09 1.08 1.31 1.35 1.08 0.71 0.54 0.53 0.60 0.61 0.59 0.45 0.60 0.52 0.59 0.61 0.61 0.60 0.63 0.65 0.73 0.72 0.61 0.47 0.57 0.60 0.67 0.66 0.60 0.65 0.48 0.48 0.34 0.29
0.70 0.68 0.64 0.63 0.63 0.62 0.61 0.62 0.65 0.72 1.06 1.20 1.08 0.87 1.09 1.30 1.23 0.85 0.56 0.57 0.63 0.71 0.70 0.63 0.52 0.52 0.60 0.61 0.64 0.61 0.59 0.66 0.70 0.70 0.75 0.69 0.61 0.51 0.57 0.54 0.51 0.58 0.55 0.54 0.51 0.44 0.31
0.73 0.74 0.74 0.70 0.67 0.64 0.64 0.64 0.63 0.68 1.01 1.09 0.97 0.70 1.07 1.19 0.74 0.72 0.60 0.63 0.71 0.69 0.74 0.74 0.76 0.66 0.66 0.68 0.64 0.61 0.59 0.66 0.75 0.72 0.61 0.69 0.64 0.48 0.50 0.62 0.67 0.62 0.56 0.54 0.44 0.39 0.42
0.72 0.73 0.74 0.74 0.76 0.72 0.69 0.67 0.65 0.70 0.96 0.95 0.80 0.79 1.03 1.02 0.58 0.58 0.66 0.66 0.70 0.68 0.69 0.70 0.71 0.73 0.75 0.69 0.61 0.66 0.69 0.81 0.82 0.73 0.68 0.70 0.61 0.48 0.48 0.58 0.60 0.54 0.53 0.55 0.53 0.52 0.41
0.70 0.72 0.74 0.75 0.74 0.74 0.71 0.67 0.68 0.74 0.91 0.94 0.79 0.61 0.75 0.81 0.75 0.64 0.60 0.61 0.62 0.76 0.71 0.74 0.73 0.76 0.70 0.67 0.73 0.64 0.67 0.79 0.85 0.79 0.81 0.84 0.63 0.56 0.43 0.48 0.58 0.52 0.54 0.53 0.51 0.42 0.41
0.54 0.63 0.71 0.75 0.77 0.78 0.81 0.77 0.83 0.78 0.92 0.86 0.74 0.63 0.70 0.57 0.61 0.65 0.66 0.64 0.60 0.61 0.72 0.76 0.70 0.69 0.66 0.60 0.63 0.62 0.70 0.73 0.80 0.84 0.78 0.72 0.58 0.61 0.58 0.56 0.56 0.58 0.56 0.54 0.49 0.49 0.43
0.43 0.48 0.54 0.65 0.76 0.79 0.81 0.82 0.85 0.88 0.84 0.68 0.51 0.55 0.68 0.66 0.67 0.63 0.62 0.58 0.58 0.62 0.66 0.64 0.63 0.69 0.69 0.61 0.64 0.60 0.67 0.68 0.66 0.76 0.72 0.73 0.54 0.59 0.53 0.55 0.54 0.49 0.50 0.49 0.49 0.49 0.46
0.41 0.42 0.45 0.50 0.58 0.74 0.78 0.80 0.84 0.87 0.89 0.69 0.67 0.66 0.57 0.55 0.57 0.58 0.56 0.58 0.61 0.66 0.68 0.71 0.69 0.67 0.64 0.68 0.76 0.78 0.79 0.77 0.73 0.68 0.65 0.63 0.58 0.52 0.43 0.52 0.49 0.40 0.41 0.44 0.42 0.43 0.44
0.31 0.36 0.42 0.43 0.46 0.54 0.68 0.77 0.82 0.89 0.90 0.83 0.78 0.73 0.59 0.47 0.55 0.54 0.59 0.61 0.60 0.64 0.59 0.66 0.71 0.65 0.71 0.84 0.80 0.76 0.72 0.70 0.69 0.68 0.69 0.57 0.54 0.51 0.42 0.45 0.29 0.37 0.47 0.44 0.41 0.43 0.46
0.31 0.30 0.32 0.40 0.41 0.41 0.51 0.62 0.70 0.80 0.87 0.82 0.83 0.74 0.64 0.51 0.55 0.56 0.58 0.60 0.63 0.65 0.61 0.62 0.67 0.74 0.80 0.70 0.55 0.49 0.49 0.51 0.54 0.60 0.62 0.63 0.54 0.44 0.37 0.36 0.37 0.38 0.42 0.40 0.38 0.40 0.47
0.33 0.34 0.30 0.31 0.34 0.40 0.38 0.48 0.57 0.63 0.70 0.75 0.77 0.81 0.67 0.54 0.51 0.61 0.55 0.59 0.53 0.52 0.56 0.59 0.72 0.78 0.72 0.58 0.49 0.38 0.34 0.39 0.39 0.44 0.57 0.57 0.56 0.45 0.39 0.30 0.26 0.36 0.44 0.47 0.44 0.33 0.47
0.38 0.34 0.34 0.33 0.30 0.30 0.34 0.35 0.45 0.49 0.55 0.63 0.65 0.71 0.63 0.49 0.57 0.60 0.52 0.53 0.60 0.56 0.51 0.55 0.58 0.60 0.66 0.50 0.41 0.38 0.36 0.43 0.34 0.34 0.35 0.39 0.40 0.35 0.36 0.32 0.36 0.44 0.44 0.45 0.29 0.31 0.44
0.39 0.36 0.34 0.32 0.32 0.32 0.31 0.29 0.31 0.39 0.46 0.47 0.51 0.61 0.58 0.52 0.55 0.60 0.64 0.57 0.57 0.56 0.47 0.53 0.53 0.54 0.52 0.44 0.41 0.40 0.38 0.40 0.39 0.39 0.37 0.35 0.33 0.32 0.35 0.31 0.27 0.45 0.42 0.33 0.36 0.38 0.36
0.37 0.38 0.37 0.35 0.34 0.32 0.31 0.32 0.29 0.27 0.34 0.41 0.37 0.48 0.59 0.51 0.52 0.63 0.65 0.68 0.67 0.65 0.58 0.58 0.53 0.52 0.53 0.45 0.45 0.44 0.38 0.41 0.39 0.33 0.44 0.34 0.37 0.32 0.33 0.31 0.40 0.40 0.38 0.36 0.33 0.31 0.29

GFSGBSN_prec_pwat_195.txt.gz
Precipitable_Water
0.60 0.62 0.62 0.58 0.54 0.64 0.80 0.84 0.90 1.03 1.02 1.02 0.98 0.92 0.78 0.69 0.76 0.88 0.91 0.91 0.89 0.87 0.85 0.82 0.77 0.71 0.55 0.35 0.28 0.46 0.48 0.45 0.40 0.33 0.24 0.20 0.19 0.19 0.15 0.18 0.20 0.18 0.20 0.23 0.24 0.26 0.26
0.60 0.59 0.62 0.64 0.61 0.56 0.69 0.80 0.92 0.97 1.05 1.06 1.00 0.92 0.89 0.74 0.74 0.83 0.92 0.93 0.91 0.89 0.86 0.83 0.78 0.73 0.50 0.25 0.43 0.44 0.43 0.39 0.38 0.31 0.26 0.24 0.21 0.23 0.20 0.20 0.19 0.22 0.23 0.22 0.24 0.23 0.27
0.61 0.61 0.61 0.61 0.63 0.61 0.58 0.77 0.85 0.92 0.97 1.06 1.05 0.98 0.94 0.82 0.71 0.81 0.91 0.94 0.93 0.91 0.88 0.85 0.80 0.70 0.47 0.31 0.46 0.47 0.44 0.39 0.39 0.35 0.27 0.30 0.30 0.25 0.26 0.20 0.26 0.23 0.18 0.20 0.21 0.21 0.21
0.61 0.61 0.62 0.61 0.63 0.63 0.61 0.66 0.81 0.92 0.91 1.05 1.08 1.03 1.00 0.91 0.72 0.75 0.89 0.95 0.95 0.92 0.89 0.86 0.83 0.67 0.38 0.52 0.54 0.44 0.44 0.39 0.42 0.40 0.35 0.37 0.35 0.29 0.26 0.28 0.24 0.19 0.20 0.14 0.17 0.22 0.25
0.69 0.66 0.63 0.62 0.64 0.65 0.64 0.65 0.79 0.84 0.89 0.98 1.07 1.07 1.06 0.97 0.79 0.75 0.89 0.95 0.96 0.94 0.90 0.87 0.70 0.57 0.35 0.57 0.42 0.41 0.42 0.33 0.36 0.38 0.37 0.37 0.33 0.28 0.28 0.21 0.17 0.17 0.11 0.13 0.13 0.18 0.20
0.75 0.72 0.68 0.65 0.64 0.65 0.64 0.67 0.75 0.78 0.86 0.92 1.08 1.09 1.10 1.07 0.84 0.79 0.89 0.99 0.96 0.93 0.87 0.83 0.72 0.46 0.43 0.30 0.41 0.41 0.43 0.38 0.32 0.32 0.30 0.29 0.27 0.20 0.19 0.17 0.09 0.10 0.12 0.14 0.13 0.18 0.26
0.72 0.76 0.74 0.70 0.65 0.70 0.66 0.69 0.80 0.81 0.82 0.94 1.03 1.13 1.08 1.15 0.92 0.84 0.90 0.86 0.67 0.59 0.65 0.43 0.40 0.34 0.33 0.41 0.44 0.36 0.40 0.35 0.33 0.28 0.19 0.25 0.19 0.13 0.12 0.16 0.17 0.16 0.15 0.14 0.17 0.21 0.22
0.74 0.81 0.84 0.74 0.69 0.70 0.70 0.67 0.78 0.84 0.78 0.92 1.01 1.11 1.08 1.14 1.00 0.88 0.90 0.60 0.57 0.57 0.40 0.55 0.49 0.42 0.44 0.44 0.31 0.36 0.42 0.26 0.24 0.17 0.21 0.22 0.15 0.19 0.20 0.19 0.17 0.16 0.14 0.14 0.17 0.19 0.22
0.72 0.78 0.79 0.76 0.71 0.70 0.70 0.70 0.73 0.81 0.77 0.89 1.02 1.09 1.13 1.14 1.11 0.88 0.78 0.67 0.76 0.69 0.35 0.38 0.43 0.40 0.37 0.41 0.29 0.30 0.41 0.33 0.22 0.18 0.18 0.16 0.21 0.28 0.22 0.21 0.20 0.20 0.17 0.17 0.18 0.22 0.25
0.70 0.72 0.76 0.79 0.74 0.70 0.73 0.71 0.74 0.73 0.77 0.84 1.02 1.03 1.13 1.17 1.06 0.82 0.74 0.83 0.79 0.70 0.29 0.25 0.30 0.35 0.36 0.40 0.27 0.35 0.43 0.33 0.27 0.18 0.21 0.21 0.28 0.28 0.25 0.23 0.24 0.17 0.24 0.23 0.23 0.27 0.22
0.69 0.69 0.74 0.73 0.73 0.70 0.74 0.72 0.73 0.82 0.80 0.85 0.99 1.06 1.07 1.19 1.03 0.74 0.79 0.84 0.82 0.59 0.13 0.20 0.28 0.45 0.35 0.25 0.25 0.24 0.41 0.39 0.27 0.23 0.23 0.21 0.25 0.21 0.19 0.20 0.26 0.23 0.29 0.30 0.32 0.32 0.36
0.70 0.65 0.70 0.78 0.75 0.71 0.73 0.74 0.75 0.73 0.83 0.86 0.99 1.08 1.05 1.08 1.12 0.87 0.94 0.88 0.72 0.31 0.13 0.18 0.34 0.32 0.27 0.28 0.26 0.28 0.28 0.41 0.41 0.33 0.31 0.28 0.38 0.32 0.28 0.31 0.33 0.37 0.34 0.34 0.37 0.38 0.28
0.72 0.66 0.69 0.82 0.78 0.72 0.72 0.75 0.76 0.76 0.85 0.90 0.97 1.06 1.03 1.14 0.91 1.06 0.94 0.76 0.38 0.23 0.23 0.20 0.25 0.34 0.31 0.27 0.28 0.29 0.27 0.27 0.26 0.23 0.20 0.25 0.27 0.34 0.37 0.32 0.39 0.41 0.35 0.24 0.24 0.27 0.24
0.76 0.66 0.72 0.81 0.77 0.74 0.74 0.78 0.74 0.81 0.86 0.90 0.96 1.04 1.03 0.99 1.18 1.10 0.84 0.57 0.29 0.25 0.21 0.26 0.30 0.31 0.25 0.31 0.30 0.30 0.26 0.23 0.30 0.27 0.21 0.18 0.18 0.28 0.33 0.29 0.30 0.34 0.32 0.21 0.18 0.21 0.24
0.73 0.72 0.71 0.80 0.81 0.79 0.78 0.77 0.74 0.82 0.86 0.90 1.00 0.97 0.94 0.97 1.15 1.04 0.64 0.40 0.31 0.26 0.27 0.33 0.34 0.28 0.26 0.30 0.28 0.29 0.25 0.23 0.27 0.29 0.19 0.19 0.18 0.30 0.30 0.31 0.35 0.34 0.33 0.39 0.32 0.35 0.30
0.70 0.71 0.74 0.72 0.73 0.74 0.74 0.72 0.75 0.80 0.86 0.90 0.83 0.85 0.84 1.05 1.14 0.94 0.56 0.38 0.35 0.37 0.33 0.35 0.27 0.32 0.24 0.28 0.26 0.25 0.27 0.29 0.28 0.34 0.35 0.28 0.22 0.35 0.37 0.45 0.46 0.39 0.43 0.35 0.39 0.27 0.26
0.67 0.69 0.70 0.71 0.72 0.69 0.69 0.68 0.72 0.76 0.85 0.87 0.76 0.63 0.88 1.08 1.08 0.75 0.46 0.36 0.37 0.44 0.42 0.33 0.35 0.35 0.33 0.30 0.31 0.27 0.27 0.34 0.34 0.33 0.37 0.33 0.34 0.35 0.49 0.42 0.39 0.40 0.38 0.43 0.45 0.41 0.32
0.59 0.66 0.67 0.68 0.69 0.73 0.70 0.71 0.72 0.74 0.83 0.82 0.68 0.51 0.93 1.02 0.64 0.63 0.49 0.45 0.49 0.47 0.50 0.41 0.38 0.41 0.39 0.39 0.35 0.33 0.31 0.35 0.50 0.46 0.38 0.42 0.42 0.34 0.39 0.56 0.62 0.56 0.48 0.50 0.42 0.39 0.44
0.59 0.59 0.66 0.68 0.67 0.68 0.71 0.71 0.75 0.74 0.79 0.73 0.57 0.64 0.92 0.91 0.48 0.51 0.55 0.56 0.54 0.50 0.45 0.43 0.39 0.42 0.47 0.48 0.41 0.43 0.43 0.53 0.58 0.54 0.47 0.50 0.47 0.38 0.42 0.54 0.62 0.57 0.61 0.60 0.57 0.54 0.42
0.55 0.56 0.62 0.66 0.68 0.69 0.67 0.70 0.74 0.73 0.77 0.75 0.60 0.51 0.64 0.76 0.69 0.55 0.53 0.53 0.51 0.58 0.53 0.53 0.48 0.50 0.43 0.39 0.48 0.41 0.45 0.58 0.66 0.69 0.74 0.68 0.57 0.48 0.37 0.45 0.57 0.52 0.56 0.61 0.59 0.48 0.43
0.42 0.51 0.58 0.64 0.66 0.67 0.70 0.68 0.71 0.75 0.76 0.72 0.60 0.53 0.62 0.48 0.56 0.59 0.59 0.55 0.53 0.52 0.60 0.58 0.51 0.48 0.45 0.38 0.42 0.45 0.56 0.66 0.75 0.77 0.76 0.74 0.55 0.58 0.57 0.61 0.61 0.57 0.54 0.56 0.55 0.50 0.46
0.39 0.41 0.49 0.63 0.66 0.69 0.74 0.65 0.67 0.74 0.75 0.62 0.50 0.53 0.62 0.57 0.57 0.56 0.58 0.53 0.52 0.56 0.58 0.53 0.50 0.53 0.56 0.52 0.53 0.51 0.62 0.66 0.66 0.79 0.76 0.78 0.58 0.62 0.53 0.63 0.62 0.54 0.56 0.55 0.55 0.57 0.56
0.39 0.37 0.41 0.58 0.65 0.69 0.73 0.76 0.68 0.71 0.72 0.58 0.64 0.71 0.66 0.59 0.57 0.55 0.53 0.55 0.55 0.61 0.62 0.61 0.60 0.60 0.59 0.57 0.69 0.77 0.82 0.79 0.76 0.70 0.67 0.68 0.61 0.56 0.47 0.61 0.58 0.47 0.47 0.53 0.54 0.57 0.57
0.38 0.38 0.37 0.45 0.62 0.67 0.71 0.73 0.74 0.71 0.68 0.66 0.63 0.69 0.57 0.48 0.49 0.55 0.59 0.62 0.60 0.60 0.56 0.64 0.70 0.63 0.69 0.84 0.83 0.81 0.78 0.76 0.76 0.75 0.77 0.62 0.58 0.55 0.46 0.51 0.36 0.51 0.60 0.62 0.57 0.59 0.63
0.35 0.36 0.37 0.38 0.52 0.63 0.67 0.70 0.73 0.74 0.77 0.67 0.72 0.66 0.61 0.51 0.54 0.54 0.57 0.61 0.64 0.67 0.64 0.66 0.72 0.79 0.85 0.76 0.58 0.51 0.51 0.54 0.57 0.66 0.66 0.69 0.59 0.48 0.41 0.40 0.49 0.53 0.53 0.54 0.54 0.55 0.66
0.35 0.34 0.34 0.36 0.39 0.54 0.63 0.68 0.68 0.74 0.78 0.71 0.74 0.77 0.66 0.55 0.53 0.58 0.55 0.58 0.56 0.58 0.60 0.65 0.79 0.85 0.78 0.62 0.52 0.40 0.37 0.44 0.44 0.51 0.66 0.65 0.64 0.53 0.44 0.37 0.32 0.43 0.58 0.69 0.69 0.48 0.69
0.36 0.34 0.34 0.34 0.35 0.40 0.50 0.61 0.68 0.65 0.70 0.71 0.69 0.77 0.65 0.53 0.62 0.65 0.58 0.58 0.66 0.61 0.56 0.62 0.61 0.65 0.73 0.54 0.45 0.41 0.40 0.51 0.41 0.42 0.45 0.48 0.49 0.43 0.43 0.39 0.42 0.51 0.55 0.65 0.42 0.40 0.60
0.38 0.36 0.34 0.33 0.33 0.33 0.35 0.46 0.56 0.66 0.65 0.64 0.67 0.76 0.67 0.55 0.58 0.64 0.66 0.61 0.62 0.59 0.50 0.52 0.52 0.56 0.55 0.48 0.46 0.43 0.42 0.46 0.45 0.48 0.46 0.42 0.42 0.41 0.44 0.38 0.33 0.56 0.53 0.44 0.49 0.54 0.55
0.38 0.38 0.36 0.35 0.35 0.33 0.32 0.31 0.43 0.54 0.64 0.62 0.53 0.69 0.73 0.58 0.57 0.66 0.66 0.68 0.68 0.62 0.57 0.60 0.56 0.54 0.55 0.51 0.49 0.50 0.44 0.48 0.45 0.38 0.53 0.40 0.45 0.42 0.45 0.40 0.51 0.53 0.50 0.54 0.54 0.49 0.50

GFSGBSN_prec_pwat_198.txt.gz
Precipitable_Water
0.53 0.54 0.55 0.57 0.59 0.59 0.59 0.55 0.58 0.71 0.74 0.86 1.01 1.00 0.89 0.89 0.83 0.73 0.70 0.84 0.94 0.93 0.90 0.87 0.83 0.78 0.63 0.41 0.33 0.48 0.49 0.45 0.40 0.34 0.26 0.22 0.20 0.19 0.15 0.17 0.19 0.18 0.18 0.20 0.23 0.24 0.24
0.57 0.56 0.56 0.58 0.58 0.57 0.58 0.60 0.57 0.57 0.72 0.81 0.89 1.02 0.98 0.92 0.85 0.82 0.71 0.81 0.94 0.95 0.93 0.89 0.85 0.80 0.56 0.30 0.50 0.50 0.46 0.43 0.38 0.33 0.27 0.25 0.21 0.23 0.19 0.18 0.16 0.20 0.20 0.19 0.22 0.22 0.23
0.59 0.58 0.57 0.56 0.55 0.56 0.59 0.58 0.59 0.59 0.63 0.74 0.80 0.93 1.06 0.98 0.90 0.87 0.77 0.76 0.92 0.98 0.95 0.92 0.87 0.77 0.52 0.37 0.52 0.52 0.48 0.41 0.40 0.36 0.28 0.30 0.28 0.22 0.22 0.16 0.22 0.20 0.15 0.17 0.17 0.17 0.18
0.64 0.64 0.62 0.59 0.59 0.57 0.55 0.56 0.57 0.59 0.60 0.69 0.82 0.84 1.00 1.04 0.99 0.93 0.84 0.74 0.91 0.97 0.97 0.94 0.89 0.73 0.42 0.60 0.61 0.50 0.47 0.41 0.43 0.40 0.34 0.35 0.32 0.26 0.24 0.25 0.22 0.17 0.17 0.12 0.14 0.18 0.20
0.68 0.71 0.69 0.66 0.65 0.65 0.63 0.57 0.57 0.59 0.60 0.59 0.68 0.79 0.91 1.03 1.05 1.04 0.91 0.77 0.93 0.98 0.97 0.95 0.78 0.64 0.40 0.62 0.46 0.48 0.47 0.35 0.38 0.39 0.37 0.36 0.31 0.23 0.25 0.18 0.15 0.17 0.10 0.11 0.13 0.16 0.16
0.66 0.70 0.70 0.71 0.68 0.68 0.69 0.64 0.60 0.59 0.62 0.60 0.61 0.74 0.82 1.00 1.07 1.10 1.02 0.82 0.97 0.97 0.94 0.91 0.81 0.54 0.51 0.35 0.45 0.46 0.48 0.40 0.33 0.32 0.30 0.28 0.25 0.17 0.17 0.16 0.09 0.10 0.12 0.13 0.11 0.14 0.19
0.59 0.62 0.65 0.66 0.70 0.69 0.72 0.69 0.65 0.61 0.63 0.64 0.66 0.69 0.76 0.96 1.06 1.12 1.11 0.80 0.69 0.63 0.70 0.51 0.49 0.44 0.39 0.49 0.51 0.41 0.45 0.37 0.34 0.29 0.19 0.24 0.17 0.12 0.11 0.14 0.14 0.14 0.14 0.12 0.15 0.17 0.17
0.56 0.60 0.61 0.64 0.64 0.69 0.74 0.72 0.70 0.67 0.66 0.65 0.71 0.74 0.75 0.93 1.08 1.19 1.14 0.60 0.62 0.70 0.48 0.65 0.62 0.53 0.53 0.50 0.33 0.38 0.44 0.29 0.27 0.19 0.23 0.20 0.14 0.16 0.18 0.16 0.15 0.15 0.14 0.13 0.15 0.17 0.18
0.59 0.61 0.63 0.63 0.63 0.66 0.77 0.81 0.75 0.70 0.70 0.68 0.66 0.68 0.75 0.94 1.05 1.10 0.99 0.66 0.84 0.81 0.45 0.47 0.55 0.52 0.45 0.47 0.33 0.32 0.37 0.30 0.22 0.19 0.18 0.14 0.15 0.18 0.17 0.15 0.14 0.15 0.14 0.14 0.15 0.19 0.22
0.59 0.62 0.64 0.66 0.64 0.64 0.73 0.81 0.77 0.75 0.74 0.71 0.71 0.70 0.80 0.97 0.90 1.01 0.88 0.95 0.88 0.83 0.37 0.31 0.37 0.47 0.49 0.45 0.29 0.40 0.41 0.30 0.24 0.16 0.18 0.17 0.20 0.19 0.17 0.16 0.18 0.14 0.21 0.21 0.21 0.20 0.14
0.60 0.63 0.68 0.71 0.66 0.62 0.70 0.80 0.78 0.77 0.76 0.74 0.72 0.76 0.77 1.00 0.87 0.84 0.95 1.03 0.88 0.74 0.18 0.25 0.32 0.51 0.40 0.34 0.28 0.27 0.46 0.37 0.21 0.18 0.19 0.13 0.16 0.16 0.16 0.15 0.21 0.18 0.27 0.25 0.25 0.22 0.25
0.64 0.67 0.73 0.74 0.69 0.64 0.67 0.71 0.79 0.73 0.75 0.75 0.73 0.72 0.75 0.90 0.93 1.03 1.14 1.04 0.83 0.43 0.19 0.22 0.36 0.31 0.27 0.29 0.28 0.28 0.31 0.42 0.36 0.25 0.22 0.19 0.28 0.21 0.17 0.20 0.24 0.28 0.28 0.32 0.31 0.29 0.20
0.66 0.68 0.72 0.71 0.72 0.68 0.69 0.75 0.73 0.76 0.75 0.77 0.77 0.71 0.75 0.96 0.78 1.05 1.14 0.87 0.45 0.33 0.34 0.23 0.28 0.34 0.24 0.20 0.25 0.24 0.22 0.26 0.20 0.17 0.16 0.22 0.22 0.29 0.32 0.24 0.30 0.30 0.26 0.17 0.17 0.20 0.15
0.65 0.68 0.71 0.74 0.79 0.80 0.82 0.83 0.73 0.77 0.77 0.79 0.79 0.78 0.76 0.85 0.96 1.02 0.97 0.61 0.33 0.37 0.30 0.30 0.30 0.31 0.23 0.24 0.23 0.22 0.20 0.18 0.25 0.20 0.14 0.12 0.11 0.21 0.28 0.23 0.23 0.26 0.26 0.17 0.14 0.15 0.15
0.65 0.66 0.69 0.73 0.78 0.81 0.78 0.75 0.74 0.78 0.79 0.80 0.78 0.75 0.71 0.89 0.98 0.95 0.73 0.41 0.38 0.32 0.32 0.30 0.33 0.25 0.27 0.29 0.24 0.23 0.19 0.16 0.20 0.23 0.13 0.14 0.14 0.24 0.25 0.28 0.27 0.28 0.25 0.32 0.23 0.26 0.21
0.63 0.62 0.67 0.69 0.75 0.78 0.80 0.77 0.76 0.78 0.81 0.81 0.67 0.60 0.63 0.88 0.98 0.83 0.58 0.44 0.46 0.36 0.35 0.36 0.25 0.28 0.22 0.27 0.25 0.24 0.23 0.23 0.22 0.25 0.28 0.22 0.16 0.27 0.27 0.32 0.32 0.27 0.37 0.27 0.30 0.19 0.18
0.57 0.64 0.62 0.67 0.68 0.74 0.78 0.80 0.81 0.81 0.81 0.80 0.63 0.50 0.66 0.86 0.91 0.64 0.40 0.47 0.44 0.43 0.35 0.31 0.32 0.30 0.27 0.25 0.26 0.25 0.23 0.24 0.25 0.27 0.32 0.29 0.25 0.28 0.32 0.25 0.22 0.29 0.30 0.33 0.35 0.32 0.23
0.49 0.56 0.61 0.63 0.66 0.67 0.71 0.77 0.78 0.77 0.79 0.75 0.58 0.41 0.71 0.88 0.52 0.53 0.45 0.52 0.49 0.43 0.42 0.35 0.40 0.36 0.31 0.30 0.29 0.27 0.24 0.23 0.31 0.30 0.26 0.28 0.26 0.20 0.27 0.44 0.41 0.38 0.32 0.33 0.30 0.29 0.36
0.44 0.50 0.54 0.62 0.65 0.65 0.66 0.69 0.74 0.76 0.79 0.66 0.48 0.49 0.74 0.78 0.42 0.45 0.52 0.52 0.49 0.47 0.40 0.36 0.34 0.44 0.44 0.35 0.29 0.29 0.27 0.37 0.39 0.34 0.29 0.33 0.27 0.20 0.23 0.33 0.45 0.41 0.44 0.43 0.42 0.45 0.33
0.42 0.44 0.49 0.59 0.63 0.66 0.66 0.66 0.69 0.73 0.78 0.66 0.49 0.39 0.56 0.64 0.59 0.51 0.48 0.49 0.44 0.51 0.46 0.44 0.40 0.44 0.43 0.40 0.40 0.31 0.33 0.42 0.48 0.42 0.44 0.42 0.33 0.24 0.18 0.24 0.37 0.36 0.42 0.48 0.50 0.43 0.37
0.39 0.40 0.45 0.53 0.62 0.65 0.65 0.65 0.65 0.69 0.78 0.64 0.50 0.43 0.53 0.42 0.48 0.53 0.53 0.49 0.47 0.44 0.48 0.50 0.40 0.38 0.36 0.35 0.39 0.39 0.43 0.49 0.55 0.56 0.53 0.50 0.36 0.36 0.32 0.39 0.42 0.41 0.45 0.52 0.51 0.48 0.47
0.37 0.39 0.40 0.47 0.60 0.65 0.67 0.68 0.64 0.64 0.76 0.60 0.45 0.45 0.53 0.50 0.55 0.49 0.51 0.48 0.47 0.50 0.46 0.39 0.35 0.42 0.41 0.36 0.41 0.43 0.52 0.52 0.50 0.62 0.60 0.60 0.42 0.45 0.42 0.50 0.52 0.50 0.55 0.55 0.54 0.55 0.55
0.36 0.37 0.37 0.44 0.58 0.65 0.69 0.70 0.67 0.65 0.74 0.56 0.60 0.63 0.56 0.52 0.51 0.49 0.48 0.49 0.48 0.53 0.53 0.51 0.50 0.48 0.44 0.45 0.56 0.61 0.68 0.67 0.61 0.55 0.53 0.56 0.53 0.51 0.43 0.58 0.59 0.50 0.47 0.55 0.55 0.60 0.59
0.36 0.36 0.37 0.43 0.52 0.63 0.68 0.73 0.71 0.72 0.70 0.62 0.59 0.60 0.51 0.44 0.50 0.49 0.51 0.54 0.53 0.52 0.46 0.55 0.59 0.52 0.57 0.67 0.66 0.65 0.64 0.64 0.68 0.71 0.72 0.61 0.61 0.56 0.47 0.52 0.37 0.52 0.64 0.62 0.58 0.60 0.63
0.37 0.36 0.35 0.36 0.44 0.57 0.65 0.69 0.71 0.74 0.72 0.66 0.67 0.57 0.55 0.45 0.52 0.54 0.56 0.55 0.60 0.60 0.57 0.57 0.61 0.65 0.71 0.68 0.57 0.51 0.50 0.52 0.56 0.64 0.66 0.72 0.60 0.49 0.43 0.41 0.48 0.47 0.51 0.53 0.53 0.47 0.62
0.37 0.37 0.35 0.34 0.40 0.46 0.60 0.66 0.69 0.75 0.74 0.68 0.66 0.71 0.59 0.49 0.49 0.60 0.55 0.59 0.53 0.54 0.57 0.61 0.76 0.82 0.76 0.62 0.53 0.41 0.37 0.43 0.43 0.50 0.65 0.66 0.66 0.51 0.45 0.37 0.32 0.39 0.52 0.61 0.64 0.38 0.62
0.38 0.38 0.36 0.34 0.35 0.38 0.49 0.62 0.68 0.71 0.76 0.71 0.65 0.73 0.63 0.49 0.57 0.61 0.54 0.52 0.63 0.59 0.55 0.61 0.65 0.67 0.75 0.54 0.46 0.42 0.40 0.50 0.39 0.39 0.42 0.46 0.48 0.43 0.43 0.40 0.42 0.50 0.57 0.64 0.39 0.35 0.59
0.38 0.38 0.37 0.36 0.34 0.33 0.38 0.50 0.63 0.68 0.71 0.71 0.65 0.75 0.66 0.56 0.56 0.67 0.69 0.61 0.61 0.62 0.53 0.59 0.58 0.60 0.58 0.48 0.46 0.44 0.43 0.46 0.44 0.45 0.43 0.42 0.41 0.40 0.44 0.39 0.34 0.57 0.58 0.45 0.50 0.58 0.60
0.40 0.37 0.36 0.35 0.37 0.32 0.31 0.39 0.50 0.62 0.68 0.68 0.60 0.71 0.76 0.61 0.58 0.73 0.76 0.80 0.76 0.73 0.63 0.65 0.59 0.58 0.61 0.53 0.52 0.51 0.43 0.46 0.43 0.36 0.53 0.40 0.47 0.43 0.47 0.44 0.56 0.59 0.54 0.60 0.59 0.56 0.57

GFSGBSN_prec_pwat_204.txt.gz
Precipitable_Water
0.54 0.58 0.58 0.60 0.60 0.59 0.56 0.55 0.57 0.58 0.57 0.57 0.57 0.52 0.63 0.81 1.05 1.00 0.96 0.91 0.73 0.66 0.75 0.87 0.83 0.80 0.70 0.47 0.41 0.53 0.52 0.47 0.43 0.35 0.28 0.26 0.22 0.20 0.16 0.18 0.18 0.15 0.17 0.18 0.19 0.19 0.19
0.53 0.58 0.57 0.62 0.63 0.62 0.62 0.62 0.62 0.57 0.57 0.58 0.56 0.58 0.53 0.60 0.75 1.02 1.03 1.05 0.93 0.69 0.68 0.84 0.85 0.81 0.61 0.36 0.63 0.59 0.54 0.47 0.42 0.36 0.29 0.25 0.23 0.24 0.19 0.18 0.17 0.21 0.19 0.18 0.19 0.17 0.18
0.45 0.52 0.55 0.56 0.60 0.57 0.56 0.59 0.60 0.64 0.60 0.57 0.57 0.56 0.57 0.56 0.59 0.70 1.04 1.11 1.07 0.92 0.68 0.79 0.85 0.75 0.54 0.43 0.65 0.62 0.56 0.49 0.47 0.41 0.31 0.31 0.29 0.22 0.22 0.18 0.23 0.21 0.14 0.14 0.15 0.15 0.15
0.39 0.42 0.49 0.53 0.58 0.57 0.55 0.55 0.55 0.60 0.64 0.59 0.58 0.57 0.57 0.58 0.57 0.57 0.75 1.15 1.19 1.10 0.81 0.76 0.84 0.72 0.43 0.67 0.72 0.64 0.61 0.52 0.50 0.46 0.39 0.38 0.34 0.27 0.22 0.26 0.21 0.16 0.15 0.09 0.14 0.15 0.17
0.51 0.42 0.38 0.49 0.54 0.56 0.58 0.55 0.53 0.55 0.60 0.65 0.60 0.59 0.58 0.58 0.58 0.56 0.58 0.90 1.27 1.23 1.07 0.81 0.71 0.64 0.40 0.65 0.51 0.60 0.63 0.47 0.47 0.45 0.41 0.38 0.33 0.26 0.23 0.15 0.14 0.15 0.08 0.11 0.11 0.13 0.14
0.49 0.53 0.44 0.40 0.46 0.53 0.57 0.56 0.55 0.54 0.57 0.61 0.65 0.61 0.61 0.59 0.58 0.58 0.56 0.71 1.14 1.28 1.21 0.96 0.71 0.50 0.50 0.39 0.48 0.53 0.61 0.57 0.43 0.40 0.36 0.32 0.27 0.20 0.18 0.15 0.08 0.10 0.11 0.10 0.09 0.15 0.15
0.51 0.53 0.46 0.42 0.44 0.50 0.53 0.56 0.56 0.56 0.53 0.57 0.62 0.66 0.63 0.63 0.62 0.61 0.58 0.56 0.74 0.84 0.95 0.67 0.45 0.40 0.43 0.58 0.55 0.48 0.55 0.51 0.47 0.36 0.25 0.30 0.20 0.14 0.15 0.17 0.14 0.13 0.11 0.09 0.10 0.15 0.14
0.43 0.49 0.42 0.45 0.45 0.50 0.51 0.56 0.59 0.60 0.59 0.55 0.56 0.64 0.66 0.65 0.65 0.65 0.59 0.40 0.67 0.78 0.65 0.87 0.77 0.57 0.53 0.55 0.40 0.41 0.51 0.39 0.37 0.25 0.28 0.26 0.16 0.19 0.20 0.18 0.16 0.14 0.11 0.09 0.11 0.14 0.14
0.47 0.44 0.39 0.44 0.51 0.51 0.51 0.60 0.64 0.65 0.64 0.61 0.56 0.63 0.69 0.69 0.69 0.66 0.50 0.35 0.77 0.98 0.57 0.67 0.79 0.71 0.52 0.55 0.37 0.37 0.41 0.38 0.32 0.27 0.24 0.19 0.18 0.22 0.19 0.17 0.14 0.13 0.12 0.11 0.10 0.12 0.13
0.49 0.43 0.38 0.45 0.54 0.52 0.54 0.60 0.65 0.67 0.66 0.63 0.58 0.63 0.73 0.72 0.63 0.59 0.44 0.44 0.66 0.98 0.44 0.50 0.60 0.72 0.66 0.52 0.38 0.46 0.44 0.37 0.33 0.25 0.27 0.24 0.25 0.22 0.19 0.16 0.16 0.11 0.15 0.14 0.11 0.10 0.07
0.52 0.44 0.37 0.45 0.54 0.56 0.59 0.61 0.67 0.64 0.62 0.63 0.61 0.64 0.74 0.70 0.57 0.48 0.43 0.56 0.60 0.81 0.25 0.51 0.56 0.77 0.72 0.49 0.36 0.35 0.48 0.40 0.27 0.26 0.28 0.20 0.22 0.21 0.18 0.15 0.18 0.14 0.17 0.15 0.14 0.12 0.13
0.52 0.46 0.38 0.43 0.52 0.58 0.61 0.61 0.64 0.63 0.63 0.65 0.63 0.67 0.76 0.70 0.64 0.53 0.65 0.62 0.56 0.34 0.25 0.45 0.58 0.53 0.51 0.56 0.42 0.41 0.37 0.41 0.37 0.29 0.28 0.23 0.29 0.24 0.19 0.21 0.21 0.22 0.20 0.20 0.19 0.17 0.10
0.50 0.50 0.42 0.44 0.53 0.58 0.61 0.64 0.65 0.68 0.68 0.63 0.61 0.71 0.75 0.74 0.41 0.66 0.68 0.56 0.26 0.20 0.44 0.41 0.46 0.50 0.40 0.40 0.47 0.39 0.32 0.32 0.25 0.20 0.19 0.22 0.23 0.25 0.24 0.19 0.24 0.22 0.18 0.12 0.11 0.13 0.07
0.38 0.46 0.45 0.45 0.56 0.61 0.64 0.65 0.67 0.71 0.75 0.64 0.64 0.74 0.77 0.69 0.72 0.74 0.65 0.40 0.18 0.23 0.36 0.46 0.44 0.47 0.37 0.36 0.43 0.41 0.34 0.27 0.32 0.23 0.16 0.16 0.15 0.23 0.23 0.18 0.17 0.17 0.18 0.08 0.08 0.08 0.09
0.37 0.36 0.39 0.48 0.54 0.61 0.63 0.63 0.68 0.71 0.72 0.74 0.70 0.74 0.73 0.74 0.81 0.75 0.50 0.26 0.23 0.26 0.40 0.48 0.44 0.40 0.36 0.37 0.34 0.41 0.36 0.27 0.25 0.28 0.17 0.16 0.15 0.23 0.26 0.22 0.22 0.19 0.16 0.18 0.14 0.13 0.11
0.40 0.37 0.37 0.44 0.52 0.59 0.60 0.62 0.67 0.71 0.70 0.80 0.59 0.64 0.62 0.82 0.84 0.68 0.40 0.28 0.33 0.31 0.44 0.45 0.39 0.42 0.33 0.31 0.28 0.33 0.32 0.35 0.26 0.28 0.26 0.19 0.16 0.22 0.25 0.28 0.24 0.19 0.22 0.17 0.17 0.09 0.08
0.40 0.39 0.38 0.43 0.46 0.52 0.57 0.61 0.67 0.72 0.77 0.80 0.60 0.52 0.67 0.84 0.79 0.52 0.31 0.30 0.31 0.34 0.38 0.49 0.47 0.39 0.37 0.33 0.29 0.28 0.26 0.30 0.35 0.30 0.30 0.21 0.18 0.23 0.25 0.21 0.18 0.21 0.20 0.19 0.18 0.14 0.09
0.42 0.38 0.39 0.42 0.43 0.50 0.57 0.58 0.63 0.70 0.74 0.75 0.60 0.40 0.73 0.82 0.45 0.43 0.34 0.36 0.39 0.29 0.44 0.52 0.55 0.47 0.37 0.36 0.32 0.30 0.25 0.26 0.35 0.36 0.27 0.26 0.21 0.17 0.21 0.27 0.27 0.23 0.15 0.17 0.13 0.12 0.19
0.41 0.39 0.37 0.38 0.42 0.45 0.54 0.58 0.63 0.66 0.72 0.60 0.48 0.47 0.71 0.67 0.34 0.34 0.40 0.36 0.39 0.29 0.35 0.46 0.48 0.53 0.47 0.37 0.32 0.32 0.29 0.31 0.31 0.36 0.34 0.30 0.21 0.15 0.17 0.29 0.30 0.21 0.20 0.22 0.22 0.22 0.18
0.40 0.40 0.36 0.35 0.39 0.44 0.49 0.57 0.61 0.64 0.71 0.63 0.49 0.36 0.48 0.54 0.50 0.39 0.36 0.31 0.30 0.34 0.35 0.47 0.50 0.54 0.48 0.41 0.40 0.32 0.28 0.31 0.32 0.30 0.38 0.37 0.20 0.15 0.11 0.11 0.19 0.24 0.20 0.21 0.24 0.23 0.13
0.39 0.39 0.38 0.36 0.37 0.41 0.46 0.55 0.63 0.63 0.69 0.60 0.49 0.41 0.41 0.29 0.36 0.38 0.40 0.34 0.28 0.28 0.39 0.45 0.46 0.46 0.48 0.42 0.38 0.34 0.29 0.33 0.31 0.31 0.36 0.36 0.24 0.22 0.17 0.17 0.22 0.23 0.23 0.23 0.24 0.24 0.21
0.38 0.38 0.39 0.38 0.37 0.37 0.44 0.55 0.64 0.67 0.67 0.56 0.42 0.42 0.46 0.37 0.41 0.36 0.36 0.32 0.29 0.30 0.35 0.37 0.38 0.48 0.49 0.47 0.42 0.33 0.30 0.31 0.26 0.32 0.32 0.36 0.27 0.28 0.22 0.22 0.24 0.25 0.30 0.29 0.27 0.24 0.26
0.36 0.39 0.39 0.41 0.38 0.36 0.44 0.56 0.64 0.68 0.70 0.50 0.53 0.60 0.49 0.42 0.41 0.36 0.33 0.29 0.28 0.30 0.37 0.40 0.42 0.47 0.44 0.51 0.52 0.44 0.45 0.44 0.36 0.30 0.30 0.33 0.33 0.30 0.24 0.29 0.27 0.28 0.30 0.27 0.32 0.32 0.31
0.36 0.38 0.40 0.41 0.36 0.34 0.42 0.58 0.65 0.66 0.64 0.58 0.53 0.54 0.45 0.34 0.38 0.33 0.36 0.36 0.33 0.34 0.32 0.41 0.45 0.46 0.52 0.61 0.72 0.59 0.54 0.52 0.48 0.40 0.36 0.30 0.31 0.36 0.27 0.35 0.26 0.31 0.32 0.34 0.33 0.39 0.44
0.37 0.38 0.39 0.39 0.36 0.33 0.40 0.57 0.64 0.66 0.73 0.64 0.63 0.53 0.45 0.35 0.37 0.36 0.35 0.37 0.39 0.41 0.43 0.43 0.47 0.59 0.72 0.62 0.49 0.46 0.47 0.50 0.50 0.48 0.42 0.40 0.35 0.31 0.28 0.32 0.35 0.40 0.36 0.38 0.41 0.40 0.45
0.37 0.36 0.38 0.38 0.35 0.33 0.38 0.54 0.63 0.68 0.72 0.68 0.66 0.65 0.50 0.38 0.34 0.38 0.39 0.44 0.38 0.39 0.46 0.49 0.57 0.59 0.71 0.56 0.50 0.39 0.35 0.40 0.42 0.46 0.57 0.51 0.46 0.36 0.34 0.30 0.27 0.31 0.41 0.51 0.52 0.36 0.41
0.37 0.36 0.37 0.35 0.35 0.35 0.36 0.49 0.59 0.67 0.72 0.71 0.65 0.67 0.53 0.38 0.43 0.45 0.40 0.40 0.49 0.48 0.45 0.51 0.57 0.58 0.67 0.50 0.42 0.37 0.35 0.42 0.37 0.37 0.42 0.44 0.45 0.37 0.35 0.34 0.35 0.36 0.45 0.56 0.38 0.30 0.50
0.38 0.38 0.34 0.33 0.34 0.36 0.36 0.44 0.52 0.63 0.70 0.69 0.61 0.68 0.54 0.42 0.45 0.51 0.51 0.47 0.54 0.53 0.45 0.56 0.54 0.56 0.53 0.43 0.42 0.40 0.37 0.42 0.41 0.43 0.44 0.41 0.41 0.40 0.41 0.36 0.29 0.42 0.48 0.37 0.43 0.55 0.56
0.38 0.38 0.33 0.33 0.34 0.34 0.37 0.40 0.45 0.55 0.65 0.69 0.55 0.67 0.69 0.52 0.48 0.60 0.61 0.63 0.63 0.70 0.60 0.62 0.53 0.52 0.54 0.46 0.47 0.48 0.42 0.45 0.39 0.34 0.49 0.39 0.42 0.40 0.44 0.41 0.51 0.54 0.51 0.56 0.60 0.58 0.60

GFSGBSN_prec_pwat_207.txt.gz
Precipitable_Water
0.44 0.45 0.52 0.55 0.56 0.58 0.60 0.59 0.60 0.63 0.60 0.59 0.54 0.55 0.52 0.54 0.75 1.03 1.00 0.96 0.95 0.88 0.76 0.70 0.80 0.79 0.69 0.48 0.42 0.64 0.52 0.50 0.42 0.36 0.30 0.27 0.24 0.23 0.19 0.20 0.22 0.21 0.18 0.21 0.19 0.19 0.17
0.49 0.42 0.43 0.49 0.52 0.53 0.56 0.53 0.52 0.56 0.58 0.61 0.60 0.55 0.56 0.53 0.54 0.69 0.98 1.02 1.03 1.02 0.88 0.72 0.74 0.78 0.59 0.35 0.62 0.68 0.56 0.50 0.42 0.36 0.30 0.27 0.25 0.27 0.23 0.21 0.19 0.23 0.20 0.19 0.20 0.19 0.18
0.48 0.51 0.44 0.41 0.46 0.51 0.52 0.53 0.53 0.52 0.53 0.57 0.63 0.60 0.56 0.55 0.54 0.54 0.64 0.97 1.09 1.11 1.02 0.89 0.74 0.72 0.56 0.43 0.69 0.65 0.58 0.51 0.49 0.42 0.33 0.31 0.30 0.24 0.23 0.20 0.23 0.22 0.17 0.16 0.15 0.17 0.16
0.44 0.50 0.53 0.49 0.40 0.40 0.48 0.51 0.53 0.57 0.54 0.52 0.58 0.65 0.59 0.56 0.57 0.56 0.56 0.64 1.00 1.15 1.17 1.05 0.85 0.67 0.41 0.61 0.68 0.66 0.66 0.57 0.54 0.48 0.40 0.40 0.35 0.27 0.24 0.28 0.23 0.16 0.16 0.11 0.13 0.16 0.17
0.46 0.43 0.49 0.53 0.49 0.42 0.41 0.43 0.52 0.55 0.54 0.53 0.55 0.61 0.66 0.60 0.59 0.61 0.57 0.56 0.67 1.10 1.22 1.18 0.90 0.59 0.34 0.57 0.50 0.55 0.62 0.52 0.52 0.48 0.44 0.40 0.33 0.26 0.24 0.19 0.16 0.16 0.11 0.11 0.12 0.17 0.15
0.54 0.47 0.47 0.52 0.47 0.44 0.43 0.44 0.50 0.53 0.55 0.54 0.55 0.57 0.64 0.66 0.63 0.62 0.60 0.58 0.58 0.90 1.16 1.23 1.00 0.64 0.43 0.33 0.49 0.50 0.53 0.59 0.50 0.45 0.38 0.33 0.28 0.22 0.21 0.18 0.09 0.11 0.12 0.12 0.12 0.17 0.16
0.50 0.52 0.49 0.49 0.44 0.40 0.45 0.49 0.50 0.50 0.57 0.57 0.56 0.56 0.60 0.69 0.66 0.65 0.60 0.52 0.35 0.53 0.82 0.68 0.76 0.57 0.42 0.45 0.54 0.48 0.50 0.50 0.52 0.42 0.29 0.31 0.23 0.16 0.17 0.18 0.16 0.14 0.14 0.13 0.15 0.16 0.17
0.48 0.51 0.51 0.50 0.40 0.40 0.46 0.55 0.50 0.51 0.59 0.63 0.62 0.58 0.58 0.63 0.73 0.69 0.62 0.39 0.31 0.61 0.57 0.76 0.80 0.84 0.65 0.58 0.41 0.42 0.49 0.37 0.40 0.30 0.33 0.28 0.20 0.22 0.23 0.20 0.18 0.17 0.15 0.13 0.14 0.14 0.15
0.41 0.46 0.49 0.50 0.40 0.41 0.50 0.54 0.54 0.53 0.59 0.65 0.68 0.65 0.61 0.61 0.74 0.68 0.53 0.38 0.50 0.72 0.49 0.63 0.74 0.75 0.75 0.68 0.45 0.40 0.44 0.39 0.30 0.30 0.28 0.23 0.23 0.28 0.24 0.20 0.17 0.16 0.15 0.15 0.13 0.15 0.16
0.42 0.44 0.52 0.52 0.42 0.41 0.48 0.52 0.56 0.59 0.60 0.69 0.68 0.68 0.67 0.62 0.64 0.59 0.44 0.57 0.58 0.76 0.36 0.40 0.48 0.67 0.78 0.74 0.55 0.46 0.46 0.36 0.33 0.25 0.29 0.27 0.28 0.24 0.23 0.18 0.19 0.14 0.18 0.16 0.14 0.13 0.10
0.44 0.41 0.54 0.53 0.47 0.43 0.47 0.51 0.57 0.60 0.60 0.63 0.66 0.67 0.69 0.62 0.58 0.45 0.49 0.65 0.64 0.57 0.15 0.31 0.46 0.73 0.64 0.64 0.61 0.54 0.55 0.40 0.28 0.28 0.32 0.22 0.26 0.25 0.22 0.19 0.21 0.17 0.20 0.17 0.16 0.14 0.13
0.47 0.40 0.43 0.51 0.49 0.46 0.49 0.55 0.59 0.60 0.61 0.63 0.67 0.68 0.70 0.59 0.66 0.54 0.68 0.68 0.63 0.28 0.16 0.31 0.51 0.51 0.48 0.51 0.55 0.56 0.48 0.41 0.33 0.32 0.32 0.26 0.33 0.30 0.24 0.26 0.23 0.21 0.20 0.19 0.17 0.14 0.10
0.48 0.46 0.37 0.37 0.40 0.47 0.52 0.59 0.59 0.61 0.61 0.63 0.68 0.67 0.66 0.64 0.39 0.73 0.75 0.63 0.30 0.20 0.26 0.22 0.43 0.48 0.42 0.37 0.41 0.46 0.50 0.40 0.27 0.21 0.22 0.24 0.24 0.31 0.30 0.24 0.25 0.21 0.19 0.13 0.12 0.11 0.07
0.49 0.47 0.41 0.36 0.37 0.46 0.54 0.59 0.59 0.61 0.61 0.66 0.70 0.69 0.67 0.59 0.81 0.78 0.71 0.44 0.21 0.25 0.18 0.31 0.39 0.48 0.41 0.41 0.41 0.41 0.40 0.44 0.40 0.28 0.20 0.19 0.18 0.24 0.30 0.23 0.21 0.20 0.20 0.13 0.10 0.11 0.10
0.47 0.43 0.40 0.40 0.38 0.46 0.52 0.57 0.60 0.62 0.64 0.69 0.73 0.65 0.60 0.62 0.83 0.80 0.54 0.29 0.27 0.23 0.19 0.18 0.36 0.37 0.39 0.42 0.44 0.43 0.36 0.37 0.40 0.33 0.20 0.19 0.18 0.26 0.27 0.27 0.23 0.21 0.19 0.16 0.16 0.14 0.13
0.48 0.42 0.41 0.38 0.40 0.45 0.49 0.56 0.60 0.63 0.66 0.71 0.62 0.60 0.51 0.72 0.86 0.68 0.43 0.31 0.33 0.29 0.22 0.21 0.17 0.37 0.39 0.43 0.40 0.43 0.36 0.37 0.36 0.41 0.35 0.22 0.18 0.22 0.27 0.32 0.26 0.22 0.26 0.20 0.18 0.13 0.11
0.43 0.42 0.41 0.38 0.38 0.39 0.46 0.53 0.58 0.62 0.67 0.72 0.60 0.48 0.54 0.76 0.79 0.54 0.32 0.33 0.33 0.33 0.29 0.22 0.24 0.22 0.25 0.41 0.43 0.43 0.39 0.33 0.36 0.34 0.41 0.35 0.24 0.20 0.25 0.26 0.21 0.21 0.21 0.23 0.20 0.18 0.11
0.41 0.42 0.41 0.40 0.36 0.38 0.43 0.51 0.55 0.61 0.67 0.70 0.60 0.37 0.65 0.75 0.43 0.44 0.37 0.39 0.41 0.31 0.31 0.35 0.40 0.38 0.32 0.33 0.42 0.43 0.40 0.35 0.38 0.34 0.29 0.36 0.35 0.22 0.22 0.28 0.33 0.25 0.21 0.21 0.18 0.13 0.18
0.39 0.41 0.40 0.39 0.37 0.37 0.40 0.48 0.53 0.61 0.65 0.60 0.46 0.50 0.69 0.68 0.31 0.34 0.42 0.42 0.42 0.35 0.32 0.32 0.37 0.38 0.37 0.43 0.40 0.49 0.44 0.40 0.41 0.35 0.30 0.32 0.33 0.27 0.24 0.30 0.35 0.25 0.20 0.21 0.24 0.21 0.18
0.40 0.40 0.40 0.40 0.39 0.38 0.39 0.43 0.50 0.62 0.64 0.60 0.47 0.36 0.49 0.55 0.46 0.38 0.36 0.36 0.36 0.42 0.33 0.33 0.33 0.35 0.33 0.40 0.50 0.48 0.50 0.42 0.44 0.41 0.38 0.39 0.31 0.28 0.25 0.22 0.24 0.26 0.22 0.22 0.20 0.20 0.17
0.39 0.38 0.40 0.41 0.41 0.42 0.39 0.37 0.46 0.63 0.66 0.58 0.45 0.39 0.47 0.34 0.38 0.41 0.41 0.40 0.34 0.32 0.37 0.36 0.32 0.36 0.31 0.31 0.40 0.45 0.50 0.45 0.44 0.47 0.41 0.43 0.30 0.30 0.28 0.30 0.31 0.28 0.23 0.22 0.20 0.19 0.18
0.38 0.38 0.40 0.42 0.43 0.42 0.36 0.35 0.43 0.61 0.68 0.54 0.39 0.39 0.48 0.43 0.43 0.41 0.41 0.37 0.35 0.36 0.35 0.32 0.32 0.35 0.33 0.29 0.37 0.42 0.51 0.45 0.40 0.44 0.40 0.45 0.34 0.31 0.26 0.28 0.27 0.26 0.31 0.30 0.25 0.23 0.20
0.36 0.38 0.39 0.41 0.43 0.41 0.36 0.32 0.44 0.63 0.68 0.53 0.54 0.53 0.48 0.43 0.43 0.38 0.37 0.33 0.35 0.36 0.38 0.38 0.37 0.35 0.31 0.31 0.38 0.46 0.59 0.58 0.57 0.45 0.40 0.41 0.35 0.32 0.25 0.25 0.25 0.26 0.27 0.27 0.32 0.32 0.25
0.37 0.38 0.38 0.40 0.42 0.40 0.34 0.32 0.48 0.65 0.70 0.64 0.58 0.53 0.41 0.33 0.40 0.33 0.34 0.36 0.35 0.37 0.34 0.38 0.38 0.36 0.41 0.34 0.38 0.48 0.56 0.59 0.61 0.57 0.46 0.42 0.36 0.34 0.27 0.25 0.22 0.27 0.31 0.34 0.32 0.35 0.34
0.37 0.39 0.39 0.40 0.39 0.37 0.35 0.34 0.45 0.63 0.70 0.63 0.63 0.51 0.46 0.34 0.40 0.39 0.38 0.36 0.39 0.41 0.39 0.38 0.40 0.43 0.40 0.40 0.38 0.39 0.41 0.47 0.51 0.57 0.50 0.46 0.36 0.32 0.29 0.24 0.26 0.26 0.27 0.27 0.29 0.29 0.38
0.39 0.40 0.40 0.38 0.36 0.37 0.36 0.36 0.41 0.59 0.68 0.66 0.64 0.65 0.53 0.40 0.37 0.48 0.41 0.41 0.37 0.36 0.38 0.40 0.44 0.46 0.45 0.40 0.38 0.28 0.29 0.37 0.41 0.48 0.51 0.44 0.43 0.36 0.32 0.26 0.22 0.25 0.25 0.27 0.30 0.29 0.36
0.41 0.40 0.39 0.35 0.36 0.36 0.36 0.38 0.37 0.53 0.67 0.68 0.64 0.72 0.58 0.43 0.47 0.47 0.41 0.41 0.45 0.41 0.35 0.40 0.39 0.41 0.49 0.40 0.31 0.32 0.32 0.48 0.37 0.36 0.43 0.40 0.39 0.35 0.31 0.28 0.28 0.31 0.29 0.39 0.35 0.33 0.43
0.44 0.41 0.38 0.36 0.36 0.37 0.36 0.37 0.37 0.45 0.62 0.67 0.63 0.70 0.61 0.47 0.50 0.52 0.52 0.43 0.42 0.40 0.31 0.35 0.40 0.40 0.42 0.35 0.33 0.39 0.38 0.41 0.43 0.43 0.41 0.40 0.39 0.37 0.37 0.33 0.25 0.30 0.29 0.32 0.44 0.52 0.46
0.44 0.42 0.39 0.38 0.36 0.37 0.36 0.34 0.36 0.38 0.49 0.64 0.54 0.67 0.69 0.52 0.47 0.57 0.55 0.56 0.52 0.48 0.44 0.45 0.43 0.43 0.43 0.40 0.39 0.42 0.42 0.49 0.42 0.37 0.49 0.42 0.47 0.40 0.41 0.36 0.42 0.44 0.42 0.54 0.57 0.49 0.49